[[{"header":{"parameterUnit":"m.s-1","parameterCategory":1,"la1":30.2991,"la2":30.254,"lo1":-89.0895,"lo2":-89.0444,"dy":0.0017,"dx":0.0017,"nx":28,"ny":28,"refTime":"2026-01-02T09:00:00:Z","depth":0,"parameterNumber":2,"parameterNumberName":"U-component_of_WINDS"},"data":[0,0,0,0,0,0,0,0,0,0,0,0,0,0,0,0,0,0,0,0,0,0,0,0,0,0,0,0,0,0,0,0,0,0,0,0,0,0,0,0,0,0,0,0,0,0,0,0,0,0,0,0,0,0,0,0,0,0,2.7029,2.7031,0,2.7213,2.7215,2.7218,2.7222,2.7219,2.7217,2.7215,2.7407,2.7414,2.7421,0,0,0,0,0,0,0,0,0,0,0,0,0,2.6683,2.669,2.7029,2.7031,2.7033,2.7213,2.7216,2.7218,2.7222,2.7219,2.7216,2.7214,2.7405,2.7413,2.7422,0,0,0,0,0,0,0,0,0,0,0,0,0,2.6847,2.6692,2.7028,2.7057,2.7061,2.7213,2.7216,2.7219,2.7223,2.7219,2.7216,2.7212,2.7402,2.7413,2.7423,2.756,0,0,2.7457,2.7461,0,0,0,0,0,0,0,0,2.6838,2.686,2.705,2.7055,2.706,2.7191,2.7164,2.7333,2.7223,2.7161,2.7215,2.7211,2.7338,2.7354,2.7396,2.7569,2.7577,2.7458,2.7464,2.7469,2.7472,0,0,0,0,0,0,0,2.6826,2.6852,2.7102,2.7053,2.7059,2.7062,2.7081,2.7196,2.7267,2.7167,2.7167,2.7189,2.734,2.7386,2.7401,2.758,2.7457,2.7467,2.7474,2.7478,2.7872,2.7876,0,0,0,0,0,0,2.6809,2.6842,2.7096,2.7107,2.6938,2.7071,2.7092,2.7153,2.7266,2.728,2.7192,2.7188,2.7369,2.7388,2.7408,2.7574,2.7469,2.7479,2.7485,2.7868,2.7873,2.7878,0,0,0,0,0,0,2.6802,2.6832,2.7089,2.6975,2.7008,2.708,2.7148,2.7158,2.7203,2.7285,2.7298,2.7225,2.7367,2.7392,2.7521,2.758,2.7484,2.7494,2.7864,2.787,2.7875,2.7907,0,0,0,0,0,0,2.6792,2.6829,2.688,2.6976,2.7014,2.7198,2.7151,2.7164,2.7222,2.7219,2.7319,2.7333,2.7366,2.7505,2.7532,2.7594,2.7502,2.7859,2.7867,2.7874,2.7901,2.7913,2.7924,0,0,0,0,0,2.6779,2.6883,2.6883,2.6914,2.708,2.7202,2.7223,2.7259,2.7227,2.7279,2.7332,2.7329,2.757,2.7518,2.7549,2.7614,2.7855,2.7864,2.7873,2.7896,2.7911,2.7924,0,0,0,0,0,0,2.6793,2.6896,2.6897,2.7035,2.7109,2.7202,2.727,2.7274,2.736,2.7354,2.7396,2.7418,2.7546,2.7594,2.7534,2.7752,2.7709,2.7724,2.7716,2.7731,2.7742,2.7727,2.7511,0,0,0,0,0,2.6812,2.6901,2.6987,2.71,2.7137,2.7197,2.7251,2.7272,2.7352,2.7383,2.7445,2.7523,2.7616,2.7676,2.7767,2.7909,2.793,2.7969,2.798,2.7989,2.8002,2.808,2.8097,2.7907,2.7907,2.7906,0,0,2.6853,2.692,2.6974,2.7105,2.7165,2.7257,2.7224,2.7323,2.7391,2.7399,2.7523,2.7572,2.7662,2.7797,2.786,2.7841,2.8059,2.8001,2.8007,2.8015,2.809,2.8108,2.8124,2.7913,2.7912,2.7911,0,0,2.6973,2.7033,2.7133,2.7194,2.7285,2.7324,2.7348,2.7441,2.7472,2.7598,2.7605,2.7689,2.7848,2.7912,2.7965,2.8109,2.811,2.8138,2.8197,2.8272,2.8287,2.8301,2.8351,2.8369,2.815,2.815,2.815,0,2.7012,2.7149,2.7185,2.7283,2.7341,2.7351,2.7453,2.7511,2.7627,2.7667,2.7643,2.7843,2.7905,2.8055,2.809,2.8133,2.8162,2.8126,2.8282,2.8296,2.8309,2.8357,2.8376,2.8153,2.8153,2.8152,2.8152,0,2.7192,2.7288,2.7358,2.7468,2.7534,2.7634,2.7685,2.7748,2.7763,2.7805,2.7933,2.8007,2.8112,2.815,2.8167,2.8303,2.8287,2.8273,2.823,2.8329,2.8375,2.8394,2.8157,2.8156,2.8155,2.8154,0,0,2.7325,2.7454,2.7479,2.7528,2.763,2.7705,2.7806,2.7907,2.7959,2.804,2.8125,2.826,2.8247,2.8307,2.8332,2.8398,2.8506,2.8375,2.8378,2.8396,2.866,2.8669,2.869,2.8508,2.8512,2.8515,2.8652,0,2.7455,2.7632,2.7667,2.7822,2.791,2.7922,2.801,2.8082,2.8124,2.8206,2.8253,2.8348,2.8324,2.836,2.8426,2.8479,2.856,2.847,2.8588,2.8592,2.8563,2.8714,2.8724,2.8849,2.867,2.8673,2.8675,0,2.7629,2.7712,2.7875,2.7964,2.8002,2.808,2.8176,2.8254,2.8337,2.8363,2.843,2.8447,2.8553,2.8506,2.8653,2.8591,2.8642,2.8676,2.8681,2.8692,2.8638,2.8728,2.889,2.8908,2.8704,2.8702,2.87,0,2.7708,2.7861,2.7977,2.802,2.8127,2.8182,2.8229,2.8308,2.8367,2.8451,2.8489,2.8586,2.8638,2.8712,2.8755,2.8717,2.8899,2.8856,2.8923,2.8922,2.8959,2.8956,2.9131,2.8995,2.8995,2.8994,2.8994,0,2.7848,2.7947,2.8014,2.8086,2.8197,2.8237,2.8347,2.8394,2.8464,2.8546,2.8563,2.8639,2.8692,2.8776,2.8811,2.8927,2.8951,2.8975,2.8983,2.8972,2.8969,2.9005,2.8997,2.8999,2.8998,2.8997,2.8996,0,2.7954,2.8003,2.813,2.8221,2.8246,2.8324,2.8402,2.8473,2.8515,2.8619,2.8645,2.8713,2.8813,2.8863,2.8989,2.9012,2.9142,2.9145,2.9113,2.9116,2.918,2.9172,2.9382,2.9411,2.9258,2.9259,2.926,0,2.8039,2.8115,2.8213,2.8268,2.8317,2.8406,2.8465,2.8508,2.857,2.8669,2.8728,2.8829,2.8911,2.9071,2.9132,2.9228,2.9232,2.93,2.9247,2.9234,2.9232,2.9226,2.9233,2.9308,2.931,2.9311,2.9312,0,2.8184,2.8204,2.8289,2.8382,2.8452,2.8528,2.8603,2.8647,2.8703,2.8771,2.8873,2.8937,2.9064,2.9164,2.9264,2.9314,2.9323,2.9328,2.9348,2.9338,2.9315,2.9327,2.9137,2.9323,2.9322,2.9321,2.932,2.932,2.8281,2.8349,2.8428,2.8522,2.8582,2.8652,2.8722,2.8773,2.8858,2.8964,2.8985,2.9092,2.9174,2.9309,2.9362,2.9448,2.9434,2.9464,2.9471,2.9477,2.9479,2.9303,2.9467,2.9467,2.9466,2.9466,2.9466,0,2.8426,2.8477,2.8563,2.8666,2.874,2.8741,2.8823,2.8885,2.8979,2.9054,2.9134,2.9251,2.9348,2.9416,2.9515,2.9571,2.9577,2.9595,2.959,2.9602,2.9487,2.9459,2.9588,2.9588,2.9588,2.9588,2.9588,2.9588,2.8509,2.8623,2.8653,2.8798,2.885,2.8954,2.9001,2.9065,2.9125,2.9254,2.9334,2.9378,2.945,2.9554,2.9643,2.9661,2.9696,2.9714,2.9732,2.9623,2.961,2.9597,2.9571,2.9722,2.9722,2.9839,2.984,2.9841]},{"header":{"parameterUnit":"m.s-1","parameterCategory":1,"la1":30.2991,"la2":30.254,"lo1":-89.0895,"lo2":-89.0444,"dy":0.0017,"dx":0.0017,"nx":28,"ny":28,"refTime":"2026-01-02T09:00:00:Z","depth":0,"parameterNumber":3,"parameterNumberName":"V-component_of_WINDS"},"data":[0,0,0,0,0,0,0,0,0,0,0,0,0,0,0,0,0,0,0,0,0,0,0,0,0,0,0,0,0,0,0,0,0,0,0,0,0,0,0,0,0,0,0,0,0,0,0,0,0,0,0,0,0,0,0,0,0,0,1.8274,1.8274,0,1.8282,1.8282,1.8282,1.8243,1.8242,1.8241,1.824,1.8249,1.825,1.8252,0,0,0,0,0,0,0,0,0,0,0,0,0,1.8224,1.8225,1.8274,1.8274,1.8274,1.8282,1.8282,1.8282,1.8243,1.8242,1.8241,1.8239,1.8249,1.825,1.8252,0,0,0,0,0,0,0,0,0,0,0,0,0,1.824,1.8225,1.8274,1.8255,1.8254,1.8282,1.8282,1.8282,1.8244,1.8242,1.824,1.8239,1.8248,1.825,1.8252,1.8298,0,0,1.8258,1.8259,0,0,0,0,0,0,0,0,1.8239,1.8242,1.8258,1.8257,1.8255,1.826,1.8268,1.8288,1.8244,1.8248,1.824,1.8238,1.8254,1.8255,1.8261,1.8298,1.8299,1.8258,1.8259,1.826,1.8261,0,0,0,0,0,0,0,1.8238,1.8241,1.8277,1.8258,1.8256,1.8247,1.8247,1.8271,1.826,1.8247,1.8244,1.8246,1.8253,1.8259,1.8261,1.8299,1.8258,1.826,1.8261,1.8262,1.8374,1.8375,0,0,0,0,0,0,1.8239,1.8241,1.8277,1.8277,1.8243,1.8249,1.825,1.826,1.826,1.8258,1.8247,1.8244,1.8256,1.8258,1.8261,1.8314,1.826,1.8262,1.8263,1.8372,1.8374,1.8376,0,0,0,0,0,0,1.8239,1.8243,1.8276,1.8258,1.8262,1.8252,1.8264,1.8261,1.8267,1.826,1.8258,1.8256,1.8255,1.8258,1.8289,1.8314,1.8263,1.8265,1.837,1.8373,1.8375,1.8421,0,0,0,0,0,0,1.8237,1.8243,1.826,1.8259,1.8263,1.8304,1.8265,1.8262,1.827,1.8266,1.8267,1.8266,1.8254,1.8286,1.8291,1.8316,1.8266,1.8368,1.8371,1.8374,1.8417,1.8425,1.8432,0,0,0,0,0,1.8236,1.8274,1.8262,1.8266,1.8285,1.8306,1.8308,1.8294,1.8273,1.829,1.8285,1.8266,1.831,1.829,1.8294,1.832,1.8366,1.837,1.8374,1.8414,1.8424,1.8432,0,0,0,0,0,0,1.8279,1.8273,1.826,1.8298,1.8303,1.8299,1.8321,1.8305,1.8315,1.8311,1.8293,1.8294,1.8327,1.8327,1.8304,1.8364,1.8334,1.834,1.8363,1.8372,1.8379,1.8379,1.8268,0,0,0,0,0,1.8293,1.8311,1.8304,1.8339,1.8342,1.8331,1.834,1.8328,1.8332,1.8334,1.8332,1.8337,1.8352,1.8362,1.8375,1.8417,1.8416,1.8437,1.8444,1.845,1.8455,1.8476,1.8485,1.8389,1.8389,1.8389,0,0,1.8322,1.8321,1.8333,1.8348,1.835,1.8368,1.8333,1.8354,1.8368,1.8338,1.8366,1.8365,1.8369,1.8405,1.8421,1.8406,1.8481,1.8456,1.846,1.8462,1.8481,1.849,1.8499,1.8392,1.8392,1.8391,0,0,1.8384,1.8386,1.8414,1.8417,1.842,1.8412,1.8419,1.8418,1.8416,1.8444,1.8421,1.8437,1.8464,1.8467,1.8472,1.8535,1.8517,1.854,1.8578,1.8598,1.8606,1.8613,1.8634,1.8642,1.8545,1.8545,1.8545,0,1.842,1.8447,1.8431,1.8453,1.846,1.8433,1.8461,1.8465,1.8473,1.8478,1.8461,1.8493,1.8494,1.853,1.8545,1.855,1.8557,1.854,1.8606,1.8613,1.8619,1.8639,1.8647,1.8548,1.8547,1.8547,1.8547,0,1.849,1.851,1.8532,1.854,1.8549,1.8575,1.8562,1.8573,1.8561,1.8555,1.8583,1.8584,1.8596,1.8604,1.8592,1.8638,1.8629,1.8609,1.8579,1.8631,1.865,1.8657,1.8552,1.8551,1.855,1.8549,0,0,1.8581,1.8578,1.8587,1.8589,1.8591,1.8605,1.8629,1.8641,1.8651,1.8657,1.8676,1.8699,1.8681,1.8687,1.8675,1.8694,1.8742,1.8672,1.8672,1.8684,1.8792,1.8806,1.8816,1.873,1.8732,1.8733,1.8792,0,1.8641,1.8682,1.8667,1.8709,1.8726,1.87,1.872,1.8724,1.8719,1.8732,1.8727,1.8743,1.8718,1.8721,1.8738,1.8733,1.8764,1.8728,1.8748,1.8749,1.8747,1.8826,1.8841,1.8897,1.8799,1.88,1.8801,0,1.8717,1.8726,1.8769,1.8766,1.8773,1.8792,1.8801,1.8815,1.8817,1.8812,1.8819,1.8803,1.8826,1.8796,1.8827,1.8803,1.881,1.8809,1.8811,1.8812,1.8778,1.8829,1.8914,1.8922,1.8813,1.8812,1.8811,0,1.8778,1.88,1.8829,1.8832,1.883,1.8844,1.8844,1.8845,1.8852,1.886,1.8865,1.8876,1.8882,1.8891,1.8878,1.8857,1.8911,1.888,1.8907,1.8907,1.8919,1.8919,1.9007,1.8925,1.8925,1.8925,1.8924,0,1.8847,1.8874,1.8856,1.8873,1.8902,1.8885,1.8915,1.8912,1.8913,1.8929,1.8908,1.8923,1.8906,1.892,1.891,1.8937,1.894,1.8936,1.8933,1.8938,1.8939,1.8942,1.8938,1.8927,1.8926,1.8926,1.8926,0,1.892,1.8909,1.8937,1.8933,1.8932,1.8954,1.895,1.8966,1.8959,1.898,1.8984,1.8973,1.8988,1.8977,1.8992,1.8985,1.9021,1.9012,1.902,1.9017,1.9045,1.9042,1.9138,1.9149,1.9061,1.9062,1.9062,0,1.8964,1.8984,1.8982,1.8991,1.8992,1.9007,1.9014,1.8998,1.9007,1.9011,1.9026,1.9039,1.9049,1.9075,1.9068,1.9079,1.9071,1.9104,1.9073,1.9076,1.9071,1.907,1.9071,1.911,1.9111,1.9112,1.9113,0,1.9044,1.9037,1.9049,1.9058,1.9068,1.9075,1.908,1.9088,1.9072,1.9083,1.9098,1.9105,1.912,1.9133,1.9142,1.9142,1.9125,1.9123,1.9129,1.9134,1.9137,1.9135,1.9036,1.912,1.912,1.9119,1.9119,1.9118,1.9104,1.912,1.912,1.9133,1.9135,1.914,1.9155,1.9149,1.9161,1.9172,1.9162,1.918,1.9181,1.9191,1.9193,1.9207,1.9193,1.9203,1.9206,1.9208,1.9212,1.9135,1.9208,1.9208,1.9208,1.9208,1.9208,0,1.9182,1.918,1.9193,1.92,1.9211,1.9193,1.9197,1.9207,1.9223,1.9226,1.9235,1.9252,1.9265,1.9259,1.927,1.9282,1.9274,1.9286,1.9284,1.9284,1.9224,1.9217,1.9292,1.9292,1.9292,1.9292,1.9292,1.9292,1.9224,1.925,1.9243,1.927,1.9268,1.9285,1.9289,1.9294,1.9296,1.9315,1.9325,1.9321,1.9321,1.9331,1.9342,1.934,1.9345,1.9358,1.9354,1.9297,1.9289,1.9281,1.9274,1.936,1.936,1.9413,1.9413,1.9414]}]]